Year,Month,Day,Hour,Minute,Value (Times are PST for barometer in hPa)
2006,11,15,00,00,1009.45
2006,11,15,00,01,1009.45
2006,11,15,00,02,1009.42
2006,11,15,00,03,1009.48
2006,11,15,00,04,1009.42
2006,11,15,00,05,1009.37
2006,11,15,00,06,1009.14
2006,11,15,00,07,1009.12
2006,11,15,00,08,1009.25
2006,11,15,00,09,1009.17
2006,11,15,00,10,1009.08
2006,11,15,00,11,1009.03
2006,11,15,00,12,1008.79
2006,11,15,00,13,1008.43
2006,11,15,00,14,1008.49
2006,11,15,00,15,1008.40
2006,11,15,00,16,1008.44
2006,11,15,00,17,1008.58
2006,11,15,00,18,1008.77
2006,11,15,00,19,1008.74
2006,11,15,00,20,1008.66
2006,11,15,00,21,1008.53
2006,11,15,00,22,1008.50
2006,11,15,00,23,1008.57
2006,11,15,00,24,1008.53
2006,11,15,00,25,1008.60
2006,11,15,00,26,1008.64
2006,11,15,00,27,1008.57
2006,11,15,00,28,1008.50
2006,11,15,00,29,1008.44
2006,11,15,00,30,1008.53
2006,11,15,00,31,1008.47
2006,11,15,00,32,1008.43
2006,11,15,00,33,1008.43
2006,11,15,00,34,1008.50
2006,11,15,00,35,1008.41
2006,11,15,00,36,1008.08
2006,11,15,00,37,1007.78
2006,11,15,00,38,1007.70
2006,11,15,00,39,1007.86
2006,11,15,00,40,1008.14
2006,11,15,00,41,1008.26
2006,11,15,00,42,1008.20
2006,11,15,00,43,1008.23
2006,11,15,00,44,1008.26
2006,11,15,00,45,1008.16
2006,11,15,00,46,1008.12
2006,11,15,00,47,1008.03
2006,11,15,00,48,1008.04
2006,11,15,00,49,1008.16
2006,11,15,00,50,1008.16
2006,11,15,00,51,1008.16
2006,11,15,00,52,1008.09
2006,11,15,00,53,1008.03
2006,11,15,00,54,1007.95
2006,11,15,00,55,1007.82
2006,11,15,00,56,1007.82
2006,11,15,00,57,1007.77
2006,11,15,00,58,1007.93
2006,11,15,00,59,1007.89
2006,11,15,01,00,1007.89
2006,11,15,01,01,1007.72
2006,11,15,01,02,1007.65
2006,11,15,01,03,1007.59
2006,11,15,01,04,1007.48
2006,11,15,01,05,1007.41
2006,11,15,01,06,1007.32
2006,11,15,01,07,1007.24
2006,11,15,01,08,1007.15
2006,11,15,01,09,1007.21
2006,11,15,01,10,1007.28
2006,11,15,01,11,1007.32
2006,11,15,01,12,1007.31
2006,11,15,01,13,1007.21
2006,11,15,01,14,1007.17
2006,11,15,01,15,1007.01
2006,11,15,01,16,1007.04
2006,11,15,01,17,1007.11
2006,11,15,01,18,1007.15
2006,11,15,01,19,1007.11
2006,11,15,01,20,1007.15
2006,11,15,01,21,1007.08
2006,11,15,01,22,1007.10
2006,11,15,01,23,1007.01
2006,11,15,01,24,1007.01
2006,11,15,01,25,1006.98
2006,11,15,01,26,1007.01
2006,11,15,01,27,1006.93
2006,11,15,01,28,1006.80
2006,11,15,01,29,1006.67
2006,11,15,01,30,1006.60
2006,11,15,01,31,1006.57
2006,11,15,01,32,1006.60
2006,11,15,01,33,1006.54
2006,11,15,01,34,1006.47
2006,11,15,01,35,1006.44
2006,11,15,01,36,1006.39
2006,11,15,01,37,1006.27
2006,11,15,01,38,1006.23
2006,11,15,01,39,1006.30
2006,11,15,01,40,1006.40
2006,11,15,01,41,1006.40
2006,11,15,01,42,1006.40
2006,11,15,01,43,1006.37
2006,11,15,01,44,1006.37
2006,11,15,01,45,1006.44
2006,11,15,01,46,1006.43
2006,11,15,01,47,1006.26
2006,11,15,01,48,1006.03
2006,11,15,01,49,1005.95
2006,11,15,01,50,1005.83
2006,11,15,01,51,1005.86
2006,11,15,01,52,1005.86
2006,11,15,01,53,1005.79
2006,11,15,01,54,1005.76
2006,11,15,01,55,1005.66
2006,11,15,01,56,1005.69
2006,11,15,01,57,1005.72
2006,11,15,01,58,1005.66
2006,11,15,01,59,1005.66
2006,11,15,02,00,1005.59
2006,11,15,02,01,1005.55
2006,11,15,02,02,1005.48
2006,11,15,02,03,1005.35
2006,11,15,02,04,1005.46
2006,11,15,02,05,1005.59
2006,11,15,02,06,1005.51
2006,11,15,02,07,1005.32
2006,11,15,02,08,1005.35
2006,11,15,02,09,1005.32
2006,11,15,02,10,1005.28
2006,11,15,02,11,1005.32
2006,11,15,02,12,1005.25
2006,11,15,02,13,1005.32
2006,11,15,02,14,1005.35
2006,11,15,02,15,1005.42
2006,11,15,02,16,1005.52
2006,11,15,02,17,1005.49
2006,11,15,02,18,1005.45
2006,11,15,02,19,1005.41
2006,11,15,02,20,1005.28
2006,11,15,02,21,1005.18
2006,11,15,02,22,1005.25
2006,11,15,02,23,1005.22
2006,11,15,02,24,1004.98
2006,11,15,02,25,1004.91
2006,11,15,02,26,1004.95
2006,11,15,02,27,1004.74
2006,11,15,02,28,1004.82
2006,11,15,02,29,1004.95
2006,11,15,02,30,1004.94
2006,11,15,02,31,1004.84
2006,11,15,02,32,1004.88
2006,11,15,02,33,1004.81
2006,11,15,02,34,1004.81
2006,11,15,02,35,1004.84
2006,11,15,02,36,1004.84
2006,11,15,02,37,1004.91
2006,11,15,02,38,1004.95
2006,11,15,02,39,1004.87
2006,11,15,02,40,1004.67
2006,11,15,02,41,1004.72
2006,11,15,02,42,1004.80
2006,11,15,02,43,1004.57
2006,11,15,02,44,1004.41
2006,11,15,02,45,1004.57
2006,11,15,02,46,1004.64
2006,11,15,02,47,1004.63
2006,11,15,02,48,1004.49
2006,11,15,02,49,1004.37
2006,11,15,02,50,1004.31
2006,11,15,02,51,1004.44
2006,11,15,02,52,1004.50
2006,11,15,02,53,1004.43
2006,11,15,02,54,1004.33
2006,11,15,02,55,1004.20
2006,11,15,02,56,1004.10
2006,11,15,02,57,1004.29
2006,11,15,02,58,1004.10
2006,11,15,02,59,1004.06
2006,11,15,03,00,1004.00
2006,11,15,03,01,1004.01
2006,11,15,03,02,1004.10
2006,11,15,03,03,1004.10
2006,11,15,03,04,1004.03
2006,11,15,03,05,1003.99
2006,11,15,03,06,1003.83
2006,11,15,03,07,1003.76
2006,11,15,03,08,1003.76
2006,11,15,03,09,1003.72
2006,11,15,03,10,1003.59
2006,11,15,03,11,1003.69
2006,11,15,03,12,1003.68
2006,11,15,03,13,1003.48
2006,11,15,03,14,1003.39
2006,11,15,03,15,1003.42
2006,11,15,03,16,1003.39
2006,11,15,03,17,1003.28
2006,11,15,03,18,1003.15
2006,11,15,03,19,1003.05
2006,11,15,03,20,1003.07
2006,11,15,03,21,1002.92
2006,11,15,03,22,1003.05
2006,11,15,03,23,1003.05
2006,11,15,03,24,1003.08
2006,11,15,03,25,1002.98
2006,11,15,03,26,1002.95
2006,11,15,03,27,1002.91
2006,11,15,03,28,1002.88
2006,11,15,03,29,1002.78
2006,11,15,03,30,1002.74
2006,11,15,03,31,1002.68
2006,11,15,03,32,1002.64
2006,11,15,03,33,1002.53
2006,11,15,03,34,1002.43
2006,11,15,03,35,1002.27
2006,11,15,03,36,1002.27
2006,11,15,03,37,1002.24
2006,11,15,03,38,1002.34
2006,11,15,03,39,1002.47
2006,11,15,03,40,1002.37
2006,11,15,03,41,1002.37
2006,11,15,03,42,1002.20
2006,11,15,03,43,1002.10
2006,11,15,03,44,1002.17
2006,11,15,03,45,1002.20
2006,11,15,03,46,1002.10
2006,11,15,03,47,1002.03
2006,11,15,03,48,1002.00
2006,11,15,03,49,1001.93
2006,11,15,03,50,1001.93
2006,11,15,03,51,1001.90
2006,11,15,03,52,1001.80
2006,11,15,03,53,1001.90
2006,11,15,03,54,1001.80
2006,11,15,03,55,1001.90
2006,11,15,03,56,1001.83
2006,11,15,03,57,1001.85
2006,11,15,03,58,1001.77
2006,11,15,03,59,1001.86
2006,11,15,04,00,1001.93
2006,11,15,04,01,1001.86
2006,11,15,04,02,1001.83
2006,11,15,04,03,1001.79
2006,11,15,04,04,1001.52
2006,11,15,04,05,1001.49
2006,11,15,04,06,1001.56
2006,11,15,04,07,1001.63
2006,11,15,04,08,1001.59
2006,11,15,04,09,1001.48
2006,11,15,04,10,1001.28
2006,11,15,04,11,1001.15
2006,11,15,04,12,1001.12
2006,11,15,04,13,1001.08
2006,11,15,04,14,1001.08
2006,11,15,04,15,1001.12
2006,11,15,04,16,1001.19
2006,11,15,04,17,1001.19
2006,11,15,04,18,1001.19
2006,11,15,04,19,1001.22
2006,11,15,04,20,1001.24
2006,11,15,04,21,1001.15
2006,11,15,04,22,1001.12
2006,11,15,04,23,1001.11
2006,11,15,04,24,1000.98
2006,11,15,04,25,1001.02
2006,11,15,04,26,1000.95
2006,11,15,04,27,1000.95
2006,11,15,04,28,1000.99
2006,11,15,04,29,1001.08
2006,11,15,04,30,1001.08
2006,11,15,04,31,1000.98
2006,11,15,04,32,1000.78
2006,11,15,04,33,1000.64
2006,11,15,04,34,1000.53
2006,11,15,04,35,1000.33
2006,11,15,04,36,1000.10
2006,11,15,04,37,999.68
2006,11,15,04,38,999.37
2006,11,15,04,39,999.05
2006,11,15,04,40,998.99
2006,11,15,04,41,999.20
2006,11,15,04,42,999.47
2006,11,15,04,43,999.66
2006,11,15,04,44,999.70
2006,11,15,04,45,999.76
2006,11,15,04,46,999.80
2006,11,15,04,47,999.76
2006,11,15,04,48,999.83
2006,11,15,04,49,999.75
2006,11,15,04,50,999.52
2006,11,15,04,51,999.35
2006,11,15,04,52,999.19
2006,11,15,04,53,999.22
2006,11,15,04,54,999.22
2006,11,15,04,55,999.15
2006,11,15,04,56,999.08
2006,11,15,04,57,998.92
2006,11,15,04,58,998.85
2006,11,15,04,59,998.88
2006,11,15,05,00,998.78
2006,11,15,05,01,998.78
2006,11,15,05,02,998.78
2006,11,15,05,03,998.83
2006,11,15,05,04,999.10
2006,11,15,05,05,999.22
2006,11,15,05,06,999.15
2006,11,15,05,07,999.15
2006,11,15,05,08,999.12
2006,11,15,05,09,999.03
2006,11,15,05,10,999.15
2006,11,15,05,11,999.12
2006,11,15,05,12,999.05
2006,11,15,05,13,999.02
2006,11,15,05,14,999.03
2006,11,15,05,15,999.11
2006,11,15,05,16,998.98
2006,11,15,05,17,998.88
2006,11,15,05,18,998.91
2006,11,15,05,19,998.82
2006,11,15,05,20,998.88
2006,11,15,05,21,998.88
2006,11,15,05,22,998.65
2006,11,15,05,23,998.68
2006,11,15,05,24,998.61
2006,11,15,05,25,998.51
2006,11,15,05,26,998.41
2006,11,15,05,27,998.44
2006,11,15,05,28,998.40
2006,11,15,05,29,998.27
2006,11,15,05,30,998.43
2006,11,15,05,31,998.33
2006,11,15,05,32,998.17
2006,11,15,05,33,998.17
2006,11,15,05,34,998.14
2006,11,15,05,35,998.10
2006,11,15,05,36,998.17
2006,11,15,05,37,998.04
2006,11,15,05,38,997.96
2006,11,15,05,39,997.82
2006,11,15,05,40,997.70
2006,11,15,05,41,997.61
2006,11,15,05,42,997.77
2006,11,15,05,43,997.80
2006,11,15,05,44,997.76
2006,11,15,05,45,997.60
2006,11,15,05,46,997.77
2006,11,15,05,47,997.70
2006,11,15,05,48,997.69
2006,11,15,05,49,997.55
2006,11,15,05,50,997.36
2006,11,15,05,51,997.29
2006,11,15,05,52,997.33
2006,11,15,05,53,997.29
2006,11,15,05,54,997.36
2006,11,15,05,55,997.31
2006,11,15,05,56,996.99
2006,11,15,05,57,997.03
2006,11,15,05,58,997.12
2006,11,15,05,59,996.93
2006,11,15,06,00,997.12
2006,11,15,06,01,997.22
2006,11,15,06,02,997.09
2006,11,15,06,03,997.16
2006,11,15,06,04,997.17
2006,11,15,06,05,997.29
2006,11,15,06,06,997.29
2006,11,15,06,07,997.29
2006,11,15,06,08,997.33
2006,11,15,06,09,997.22
2006,11,15,06,10,997.12
2006,11,15,06,11,997.05
2006,11,15,06,12,996.92
2006,11,15,06,13,996.91
2006,11,15,06,14,996.67
2006,11,15,06,15,996.45
2006,11,15,06,16,996.51
2006,11,15,06,17,996.58
2006,11,15,06,18,996.55
2006,11,15,06,19,996.45
2006,11,15,06,20,996.38
2006,11,15,06,21,996.44
2006,11,15,06,22,996.28
2006,11,15,06,23,996.51
2006,11,15,06,24,996.41
2006,11,15,06,25,996.34
2006,11,15,06,26,996.38
2006,11,15,06,27,996.30
2006,11,15,06,28,996.20
2006,11,15,06,29,995.97
2006,11,15,06,30,996.04
2006,11,15,06,31,995.97
2006,11,15,06,32,996.07
2006,11,15,06,33,996.04
2006,11,15,06,34,996.03
2006,11,15,06,35,995.94
2006,11,15,06,36,995.80
2006,11,15,06,37,995.73
2006,11,15,06,38,995.76
2006,11,15,06,39,995.56
2006,11,15,06,40,995.52
2006,11,15,06,41,995.33
2006,11,15,06,42,995.36
2006,11,15,06,43,995.46
2006,11,15,06,44,995.36
2006,11,15,06,45,995.40
2006,11,15,06,46,995.40
2006,11,15,06,47,995.56
2006,11,15,06,48,995.59
2006,11,15,06,49,995.50
2006,11,15,06,50,995.46
2006,11,15,06,51,995.66
2006,11,15,06,52,995.43
2006,11,15,06,53,995.40
2006,11,15,06,54,995.36
2006,11,15,06,55,995.42
2006,11,15,06,56,995.16
2006,11,15,06,57,995.20
2006,11,15,06,58,995.29
2006,11,15,06,59,995.19
2006,11,15,07,00,995.19
2006,11,15,07,01,995.06
2006,11,15,07,02,995.07
2006,11,15,07,03,995.16
2006,11,15,07,04,995.06
2006,11,15,07,05,995.06
2006,11,15,07,06,995.06
2006,11,15,07,07,994.99
2006,11,15,07,08,994.92
2006,11,15,07,09,994.89
2006,11,15,07,10,994.88
2006,11,15,07,11,994.58
2006,11,15,07,12,994.55
2006,11,15,07,13,994.51
2006,11,15,07,14,994.29
2006,11,15,07,15,994.41
2006,11,15,07,16,994.38
2006,11,15,07,17,994.38
2006,11,15,07,18,994.41
2006,11,15,07,19,994.30
2006,11,15,07,20,994.12
2006,11,15,07,21,994.38
2006,11,15,07,22,994.28
2006,11,15,07,23,994.14
2006,11,15,07,24,994.18
2006,11,15,07,25,994.20
2006,11,15,07,26,994.08
2006,11,15,07,27,994.27
2006,11,15,07,28,994.07
2006,11,15,07,29,994.11
2006,11,15,07,30,994.13
2006,11,15,07,31,994.01
2006,11,15,07,32,993.96
2006,11,15,07,33,993.84
2006,11,15,07,34,993.77
2006,11,15,07,35,993.85
2006,11,15,07,36,994.01
2006,11,15,07,37,993.94
2006,11,15,07,38,994.01
2006,11,15,07,39,994.01
2006,11,15,07,40,993.87
2006,11,15,07,41,993.96
2006,11,15,07,42,993.77
2006,11,15,07,43,993.60
2006,11,15,07,44,993.69
2006,11,15,07,45,993.57
2006,11,15,07,46,993.47
2006,11,15,07,47,993.50
2006,11,15,07,48,993.30
2006,11,15,07,49,993.40
2006,11,15,07,50,993.36
2006,11,15,07,51,993.36
2006,11,15,07,52,993.23
2006,11,15,07,53,993.16
2006,11,15,07,54,993.23
2006,11,15,07,55,993.24
2006,11,15,07,56,993.36
2006,11,15,07,57,993.40
2006,11,15,07,58,993.40
2006,11,15,07,59,993.43
2006,11,15,08,00,993.45
2006,11,15,08,01,993.06
2006,11,15,08,02,992.96
2006,11,15,08,03,993.10
2006,11,15,08,04,993.23
2006,11,15,08,05,992.99
2006,11,15,08,06,992.86
2006,11,15,08,07,992.82
2006,11,15,08,08,992.65
2006,11,15,08,09,992.72
2006,11,15,08,10,992.55
2006,11,15,08,11,992.36
2006,11,15,08,12,991.98
2006,11,15,08,13,991.94
2006,11,15,08,14,991.91
2006,11,15,08,15,991.57
2006,11,15,08,16,991.53
2006,11,15,08,17,991.84
2006,11,15,08,18,991.74
2006,11,15,08,19,991.81
2006,11,15,08,20,991.77
2006,11,15,08,21,991.75
2006,11,15,08,22,991.42
2006,11,15,08,23,991.33
2006,11,15,08,24,991.37
2006,11,15,08,25,991.26
2006,11,15,08,26,990.94
2006,11,15,08,27,991.09
2006,11,15,08,28,991.26
2006,11,15,08,29,991.33
2006,11,15,08,30,991.37
2006,11,15,08,31,991.23
2006,11,15,08,32,991.23
2006,11,15,08,33,991.26
2006,11,15,08,34,991.33
2006,11,15,08,35,991.23
2006,11,15,08,36,991.33
2006,11,15,08,37,991.40
2006,11,15,08,38,991.13
2006,11,15,08,39,991.13
2006,11,15,08,40,990.96
2006,11,15,08,41,990.70
2006,11,15,08,42,990.93
2006,11,15,08,43,990.79
2006,11,15,08,44,990.59
2006,11,15,08,45,990.59
2006,11,15,08,46,990.60
2006,11,15,08,47,990.82
2006,11,15,08,48,990.93
2006,11,15,08,49,990.99
2006,11,15,08,50,991.06
2006,11,15,08,51,991.09
2006,11,15,08,52,991.06
2006,11,15,08,53,990.99
2006,11,15,08,54,991.03
2006,11,15,08,55,991.06
2006,11,15,08,56,990.99
2006,11,15,08,57,991.09
2006,11,15,08,58,990.96
2006,11,15,08,59,990.89
2006,11,15,09,00,990.99
2006,11,15,09,01,990.51
2006,11,15,09,02,990.38
2006,11,15,09,03,990.30
2006,11,15,09,04,990.01
2006,11,15,09,05,990.15
2006,11,15,09,06,989.80
2006,11,15,09,07,989.56
2006,11,15,09,08,989.43
2006,11,15,09,09,989.23
2006,11,15,09,10,989.01
2006,11,15,09,11,988.69
2006,11,15,09,12,988.79
2006,11,15,09,13,988.96
2006,11,15,09,14,989.00
2006,11,15,09,15,988.65
2006,11,15,09,16,988.42
2006,11,15,09,17,988.22
2006,11,15,09,18,988.49
2006,11,15,09,19,988.49
2006,11,15,09,20,988.64
2006,11,15,09,21,989.01
2006,11,15,09,22,989.13
2006,11,15,09,23,989.40
2006,11,15,09,24,989.54
2006,11,15,09,25,989.50
2006,11,15,09,26,989.64
2006,11,15,09,27,989.60
2006,11,15,09,28,989.57
2006,11,15,09,29,989.30
2006,11,15,09,30,989.26
2006,11,15,09,31,989.12
2006,11,15,09,32,989.01
2006,11,15,09,33,989.20
2006,11,15,09,34,988.83
2006,11,15,09,35,988.79
2006,11,15,09,36,988.84
2006,11,15,09,37,989.06
2006,11,15,09,38,988.79
2006,11,15,09,39,988.34
2006,11,15,09,40,988.15
2006,11,15,09,41,987.95
2006,11,15,09,42,987.98
2006,11,15,09,43,988.02
2006,11,15,09,44,988.25
2006,11,15,09,45,988.08
2006,11,15,09,46,988.09
2006,11,15,09,47,987.81
2006,11,15,09,48,987.74
2006,11,15,09,49,987.48
2006,11,15,09,50,987.78
2006,11,15,09,51,987.81
2006,11,15,09,52,987.44
2006,11,15,09,53,987.44
2006,11,15,09,54,987.20
2006,11,15,09,55,987.27
2006,11,15,09,56,986.97
2006,11,15,09,57,987.06
2006,11,15,09,58,987.17
2006,11,15,09,59,987.25
2006,11,15,10,00,986.93
2006,11,15,10,01,986.91
2006,11,15,10,02,987.04
2006,11,15,10,03,987.27
2006,11,15,10,04,987.61
2006,11,15,10,05,987.81
2006,11,15,10,06,987.88
2006,11,15,10,07,988.05
2006,11,15,10,08,987.89
2006,11,15,10,09,987.98
2006,11,15,10,10,987.54
2006,11,15,10,11,987.64
2006,11,15,10,12,987.71
2006,11,15,10,13,987.64
2006,11,15,10,14,987.77
2006,11,15,10,15,987.51
2006,11,15,10,16,987.44
2006,11,15,10,17,987.50
2006,11,15,10,18,987.27
2006,11,15,10,19,987.30
2006,11,15,10,20,987.10
2006,11,15,10,21,987.23
2006,11,15,10,22,987.27
2006,11,15,10,23,987.27
2006,11,15,10,24,987.17
2006,11,15,10,25,987.10
2006,11,15,10,26,986.96
2006,11,15,10,27,987.03
2006,11,15,10,28,987.10
2006,11,15,10,29,987.10
2006,11,15,10,30,986.90
2006,11,15,10,31,986.96
2006,11,15,10,32,986.97
2006,11,15,10,33,987.06
2006,11,15,10,34,986.66
2006,11,15,10,35,986.52
2006,11,15,10,36,986.49
2006,11,15,10,37,986.52
2006,11,15,10,38,986.31
2006,11,15,10,39,986.08
2006,11,15,10,40,986.18
2006,11,15,10,41,985.91
2006,11,15,10,42,985.83
2006,11,15,10,43,986.15
2006,11,15,10,44,986.12
2006,11,15,10,45,986.02
2006,11,15,10,46,985.98
2006,11,15,10,47,985.98
2006,11,15,10,48,986.14
2006,11,15,10,49,985.98
2006,11,15,10,50,985.85
2006,11,15,10,51,985.63
2006,11,15,10,52,986.05
2006,11,15,10,53,986.02
2006,11,15,10,54,986.25
2006,11,15,10,55,986.15
2006,11,15,10,56,985.80
2006,11,15,10,57,986.12
2006,11,15,10,58,985.98
2006,11,15,10,59,986.04
2006,11,15,11,00,985.81
2006,11,15,11,01,985.85
2006,11,15,11,02,985.91
2006,11,15,11,03,985.92
2006,11,15,11,04,986.08
2006,11,15,11,05,986.05
2006,11,15,11,06,985.92
2006,11,15,11,07,986.15
2006,11,15,11,08,986.05
2006,11,15,11,09,985.85
2006,11,15,11,10,985.95
2006,11,15,11,11,985.80
2006,11,15,11,12,985.71
2006,11,15,11,13,985.74
2006,11,15,11,14,985.65
2006,11,15,11,15,985.84
2006,11,15,11,16,985.71
2006,11,15,11,17,985.47
2006,11,15,11,18,985.69
2006,11,15,11,19,985.81
2006,11,15,11,20,985.91
2006,11,15,11,21,985.61
2006,11,15,11,22,985.80
2006,11,15,11,23,985.68
2006,11,15,11,24,985.64
2006,11,15,11,25,985.65
2006,11,15,11,26,985.17
2006,11,15,11,27,985.44
2006,11,15,11,28,985.53
2006,11,15,11,29,985.24
2006,11,15,11,30,985.41
2006,11,15,11,31,985.71
2006,11,15,11,32,985.34
2006,11,15,11,33,985.03
2006,11,15,11,34,985.13
2006,11,15,11,35,985.44
2006,11,15,11,36,985.16
2006,11,15,11,37,984.90
2006,11,15,11,38,984.66
2006,11,15,11,39,984.53
2006,11,15,11,40,984.29
2006,11,15,11,41,984.39
2006,11,15,11,42,984.08
2006,11,15,11,43,984.42
2006,11,15,11,44,984.46
2006,11,15,11,45,984.25
2006,11,15,11,46,984.32
2006,11,15,11,47,984.36
2006,11,15,11,48,984.16
2006,11,15,11,49,984.25
2006,11,15,11,50,984.12
2006,11,15,11,51,984.25
2006,11,15,11,52,984.29
2006,11,15,11,53,984.22
2006,11,15,11,54,984.05
2006,11,15,11,55,984.22
2006,11,15,11,56,983.98
2006,11,15,11,57,984.02
2006,11,15,11,58,983.98
2006,11,15,11,59,983.93
2006,11,15,12,00,984.08
2006,11,15,12,01,984.05
2006,11,15,12,02,984.05
2006,11,15,12,03,984.05
2006,11,15,12,04,983.92
2006,11,15,12,05,983.87
2006,11,15,12,06,984.22
2006,11,15,12,07,984.02
2006,11,15,12,08,984.05
2006,11,15,12,09,983.98
2006,11,15,12,10,983.78
2006,11,15,12,11,983.75
2006,11,15,12,12,983.58
2006,11,15,12,13,983.51
2006,11,15,12,14,983.58
2006,11,15,12,15,983.64
2006,11,15,12,16,983.71
2006,11,15,12,17,983.68
2006,11,15,12,18,983.58
2006,11,15,12,19,983.92
2006,11,15,12,20,983.98
2006,11,15,12,21,984.08
2006,11,15,12,22,983.84
2006,11,15,12,23,983.70
2006,11,15,12,24,983.58
2006,11,15,12,25,983.27
2006,11,15,12,26,983.38
2006,11,15,12,27,983.51
2006,11,15,12,28,983.34
2006,11,15,12,29,983.00
2006,11,15,12,30,983.04
2006,11,15,12,31,983.24
2006,11,15,12,32,983.27
2006,11,15,12,33,982.90
2006,11,15,12,34,982.87
2006,11,15,12,35,982.80
2006,11,15,12,36,983.27
2006,11,15,12,37,983.20
2006,11,15,12,38,983.27
2006,11,15,12,39,983.38
2006,11,15,12,40,983.51
2006,11,15,12,41,983.44
2006,11,15,12,42,983.07
2006,11,15,12,43,983.10
2006,11,15,12,44,983.34
2006,11,15,12,45,982.90
2006,11,15,12,46,982.66
2006,11,15,12,47,982.47
2006,11,15,12,48,982.19
2006,11,15,12,49,982.39
2006,11,15,12,50,982.09
2006,11,15,12,51,982.08
2006,11,15,12,52,981.94
2006,11,15,12,53,981.71
2006,11,15,12,54,981.58
2006,11,15,12,55,981.38
2006,11,15,12,56,981.34
2006,11,15,12,57,981.55
2006,11,15,12,58,981.62
2006,11,15,12,59,981.82
2006,11,15,13,00,981.78
2006,11,15,13,01,981.88
2006,11,15,13,02,981.78
2006,11,15,13,03,981.75
2006,11,15,13,04,981.55
2006,11,15,13,05,981.78
2006,11,15,13,06,981.65
2006,11,15,13,07,981.75
2006,11,15,13,08,981.85
2006,11,15,13,09,981.85
2006,11,15,13,10,981.88
2006,11,15,13,11,981.61
2006,11,15,13,12,981.68
2006,11,15,13,13,981.95
2006,11,15,13,14,982.09
2006,11,15,13,15,982.12
2006,11,15,13,16,982.32
2006,11,15,13,17,982.44
2006,11,15,13,18,982.05
2006,11,15,13,19,982.15
2006,11,15,13,20,982.12
2006,11,15,13,21,981.91
2006,11,15,13,22,981.82
2006,11,15,13,23,981.92
2006,11,15,13,24,981.99
2006,11,15,13,25,981.99
2006,11,15,13,26,981.71
2006,11,15,13,27,981.92
2006,11,15,13,28,981.92
2006,11,15,13,29,981.88
2006,11,15,13,30,981.78
2006,11,15,13,31,981.88
2006,11,15,13,32,981.85
2006,11,15,13,33,981.61
2006,11,15,13,34,981.55
2006,11,15,13,35,981.58
2006,11,15,13,36,981.68
2006,11,15,13,37,981.61
2006,11,15,13,38,981.88
2006,11,15,13,39,981.95
2006,11,15,13,40,982.19
2006,11,15,13,41,982.29
2006,11,15,13,42,982.56
2006,11,15,13,43,982.46
2006,11,15,13,44,982.54
2006,11,15,13,45,982.81
2006,11,15,13,46,983.00
2006,11,15,13,47,982.87
2006,11,15,13,48,982.63
2006,11,15,13,49,982.49
2006,11,15,13,50,982.47
2006,11,15,13,51,982.56
2006,11,15,13,52,982.70
2006,11,15,13,53,982.72
2006,11,15,13,54,982.53
2006,11,15,13,55,982.63
2006,11,15,13,56,982.63
2006,11,15,13,57,982.56
2006,11,15,13,58,982.63
2006,11,15,13,59,982.53
2006,11,15,14,00,982.59
2006,11,15,14,01,982.75
2006,11,15,14,02,982.32
2006,11,15,14,03,982.49
2006,11,15,14,04,982.59
2006,11,15,14,05,982.39
2006,11,15,14,06,982.44
2006,11,15,14,07,982.59
2006,11,15,14,08,982.53
2006,11,15,14,09,982.54
2006,11,15,14,10,982.66
2006,11,15,14,11,982.53
2006,11,15,14,12,982.49
2006,11,15,14,13,982.43
2006,11,15,14,14,982.46
2006,11,15,14,15,982.19
2006,11,15,14,16,982.39
2006,11,15,14,17,982.36
2006,11,15,14,18,982.29
2006,11,15,14,19,982.29
2006,11,15,14,20,982.26
2006,11,15,14,21,982.15
2006,11,15,14,22,982.22
2006,11,15,14,23,982.32
2006,11,15,14,24,982.39
2006,11,15,14,25,982.32
2006,11,15,14,26,982.22
2006,11,15,14,27,982.05
2006,11,15,14,28,982.26
2006,11,15,14,29,981.99
2006,11,15,14,30,981.99
2006,11,15,14,31,982.05
2006,11,15,14,32,981.82
2006,11,15,14,33,981.94
2006,11,15,14,34,981.82
2006,11,15,14,35,981.68
2006,11,15,14,36,981.68
2006,11,15,14,37,981.58
2006,11,15,14,38,981.61
2006,11,15,14,39,981.61
2006,11,15,14,40,981.61
2006,11,15,14,41,981.61
2006,11,15,14,42,981.71
2006,11,15,14,43,981.71
2006,11,15,14,44,981.78
2006,11,15,14,45,981.75
2006,11,15,14,46,981.88
2006,11,15,14,47,981.85
2006,11,15,14,48,981.88
2006,11,15,14,49,981.92
2006,11,15,14,50,981.92
2006,11,15,14,51,981.95
2006,11,15,14,52,981.98
2006,11,15,14,53,981.88
2006,11,15,14,54,981.65
2006,11,15,14,55,981.85
2006,11,15,14,56,981.92
2006,11,15,14,57,981.78
2006,11,15,14,58,981.82
2006,11,15,14,59,981.75
2006,11,15,15,00,981.95
2006,11,15,15,01,981.65
2006,11,15,15,02,981.68
2006,11,15,15,03,981.61
2006,11,15,15,04,981.65
2006,11,15,15,05,981.65
2006,11,15,15,06,981.61
2006,11,15,15,07,981.61
2006,11,15,15,08,981.65
2006,11,15,15,09,981.61
2006,11,15,15,10,981.65
2006,11,15,15,11,981.44
2006,11,15,15,12,981.49
2006,11,15,15,13,981.61
2006,11,15,15,14,981.51
2006,11,15,15,15,981.34
2006,11,15,15,16,981.44
2006,11,15,15,17,981.58
2006,11,15,15,18,981.58
2006,11,15,15,19,981.71
2006,11,15,15,20,981.65
2006,11,15,15,21,981.75
2006,11,15,15,22,981.68
2006,11,15,15,23,981.65
2006,11,15,15,24,981.75
2006,11,15,15,25,981.75
2006,11,15,15,26,981.67
2006,11,15,15,27,981.51
2006,11,15,15,28,981.44
2006,11,15,15,29,981.34
2006,11,15,15,30,981.31
2006,11,15,15,31,981.34
2006,11,15,15,32,981.34
2006,11,15,15,33,981.24
2006,11,15,15,34,981.24
2006,11,15,15,35,981.27
2006,11,15,15,36,981.41
2006,11,15,15,37,981.38
2006,11,15,15,38,981.41
2006,11,15,15,39,981.51
2006,11,15,15,40,981.65
2006,11,15,15,41,981.55
2006,11,15,15,42,981.75
2006,11,15,15,43,981.78
2006,11,15,15,44,981.78
2006,11,15,15,45,981.88
2006,11,15,15,46,981.95
2006,11,15,15,47,981.85
2006,11,15,15,48,981.82
2006,11,15,15,49,981.88
2006,11,15,15,50,981.99
2006,11,15,15,51,982.05
2006,11,15,15,52,982.12
2006,11,15,15,53,982.15
2006,11,15,15,54,982.09
2006,11,15,15,55,982.18
2006,11,15,15,56,982.19
2006,11,15,15,57,982.22
2006,11,15,15,58,982.19
2006,11,15,15,59,982.22
2006,11,15,16,00,982.36
2006,11,15,16,01,982.16
2006,11,15,16,02,982.05
2006,11,15,16,03,982.15
2006,11,15,16,04,982.22
2006,11,15,16,05,982.22
2006,11,15,16,06,982.22
2006,11,15,16,07,982.26
2006,11,15,16,08,982.29
2006,11,15,16,09,982.36
2006,11,15,16,10,982.36
2006,11,15,16,11,982.43
2006,11,15,16,12,982.46
2006,11,15,16,13,982.49
2006,11,15,16,14,982.43
2006,11,15,16,15,982.53
2006,11,15,16,16,982.56
2006,11,15,16,17,982.59
2006,11,15,16,18,982.63
2006,11,15,16,19,982.73
2006,11,15,16,20,982.88
2006,11,15,16,21,982.97
2006,11,15,16,22,983.00
2006,11,15,16,23,983.07
2006,11,15,16,24,983.07